GW4435 Weather Reports


time (UTC)temp
F
wind
direction
speed
knots
gust
knots
rain 1hr
in
rain 24hr
in
rain mn
in
humidity
%
barometer
mb
20260906155008 93 106 2.6 5.2 0.00 0.00 0.00 50 1016.3
20260906154506 92 93 1.7 4.3 0.00 0.00 0.00 51 1016.2
20260906154006 91 177 0.9 4.3 0.00 0.00 0.00 54 1016.1
20260906153508 90 217 1.7 7.0 0.00 0.00 0.00 55 1016.1
20260906153006 90 174 2.6 5.2 0.00 0.00 0.00 56 1016.0
20260906151507 89 63 1.7 5.2 0.00 0.00 0.00 58 1016.0
20260906151006 89 156 2.6 4.3 0.00 0.00 0.00 58 1016.0
20260906150006 88 152 2.6 5.2 0.00 0.00 0.00 60 1016.0
20260906145507 88 140 0.9 2.6 0.00 0.00 0.00 60 1016.1
20260906145007 87 146 1.7 2.6 0.00 0.00 0.00 61 1016.0
20260906144506 86 114 1.7 2.6 0.00 0.00 0.00 62 1016.0
20260906144006 86 148 0.9 1.7 0.00 0.00 0.00 64 1016.1
20260906143506 85 156 1.7 2.6 0.00 0.00 0.00 65 1016.1
20260906143006 84 174 0.9 2.6 0.00 0.00 0.00 67 1016.1
20260906142505 83 257 0.9 2.6 0.00 0.00 0.00 68 1016.0
20260906142006 83 356 0.0 1.7 0.00 0.00 0.00 70 1016.0
20260906141506 82 41 0.9 1.7 0.00 0.00 0.00 72 1016.0
20260906140506 81 14 0.9 1.7 0.00 0.00 0.00 73 1016.0
20260906140006 80 230 0.0 1.7 0.00 0.00 0.00 74 1016.1
20260906135506 80 249 0.9 1.7 0.00 0.00 0.00 75 1016.1
20260906135006 79 205 0.9 1.7 0.00 0.00 0.00 76 1016.0
20260906134006 77 324 0.0 1.7 0.00 0.00 0.00 78 1016.0
20260906133506 77 348 0.9 1.7 0.00 0.00 0.00 79 1016.0
20260906133006 77 40 0.9 1.7 0.00 0.00 0.00 80 1016.0
20260906132506 76 33 0.9 1.7 0.00 0.00 0.00 81 1016.0
20260906132006 75 21 0.9 1.7 0.00 0.00 0.00 83 1015.9
20260906131505 75 357 0.0 0.9 0.00 0.00 0.00 84 1015.9
20260906131006 74 26 0.9 0.9 0.00 0.00 0.00 85 1015.9
20260906130506 74 338 0.9 1.7 0.00 0.00 0.00 86 1015.9
20260906130006 73 340 0.0 0.9 0.00 0.00 0.00 87 1015.9
20260906125505 72 193 0.0 0.9 0.00 0.00 0.00 88 1015.8
20260906125006 72 186 0.9 2.6 0.00 0.00 0.00 89 1015.7
20260906124506 71 211 0.9 1.7 0.00 0.00 0.00 90 1015.7
20260906124006 71 332 0.9 1.7 0.00 0.00 0.00 90 1015.6
20260906123506 71 341 0.9 1.7 0.00 0.00 0.00 90 1015.5
20260906123005 71 355 0.9 1.7 0.00 0.00 0.00 90 1015.5
20260906122505 70 32 0.9 1.7 0.00 0.00 0.00 90 1015.5
20260906122006 70 345 0.9 1.7 0.00 0.00 0.00 91 1015.5
20260906121506 70 326 0.9 1.7 0.00 0.00 0.00 90 1015.5
20260906121006 70 0 0.9 1.7 0.00 0.00 0.00 91 1015.4
20260906120505 70 210 0.0 0.0 0.00 0.00 0.00 91 1015.4
20260906120006 70 210 0.9 1.7 0.00 0.00 0.00 91 1015.4
20260906115506 70 198 0.0 0.9 0.00 0.00 0.00 91 1015.4
20260906115006 70 333 0.0 0.0 0.00 0.00 0.00 91 1015.3
20260906114505 70 34 0.0 0.9 0.00 0.00 0.00 90 1015.2
20260906114007 70 36 0.9 1.7 0.00 0.00 0.00 90 1015.2
20260906113506 71 64 0.9 1.7 0.00 0.00 0.00 90 1015.1
20260906113006 71 38 0.0 1.7 0.00 0.00 0.00 90 1015.0
20260906112506 71 338 0.0 0.9 0.00 0.00 0.00 90 1015.0
20260906112006 70 339 0.0 0.0 0.00 0.00 0.00 91 1015.0
20260906111506 70 339 0.0 0.0 0.00 0.00 0.00 90 1015.0
20260906111006 70 339 0.0 0.9 0.00 0.00 0.00 90 1015.0
20260906110506 71 343 0.9 1.7 0.00 0.00 0.00 90 1014.9
20260906105505 71 348 0.9 1.7 0.00 0.00 0.00 90 1014.9
20260906105006 71 58 0.0 0.9 0.00 0.00 0.00 90 1014.9
20260906104506 71 43 0.9 1.7 0.00 0.00 0.00 90 1014.9
20260906104006 71 335 1.7 2.6 0.00 0.00 0.00 91 1014.8
20260906103506 70 344 0.9 1.7 0.00 0.00 0.00 90 1014.7
20260906103006 71 1 0.0 1.7 0.00 0.00 0.00 90 1014.8
20260906102505 71 341 0.9 1.7 0.00 0.00 0.00 90 1014.7
20260906102006 71 1 0.9 1.7 0.00 0.00 0.00 89 1014.6
20260906101506 71 326 0.9 1.7 0.00 0.00 0.00 88 1014.6
20260906101006 72 17 0.9 0.9 0.00 0.00 0.00 88 1014.6
20260906100506 72 318 0.0 0.0 0.00 0.00 0.00 88 1014.6
20260906095506 72 327 0.9 1.7 0.00 0.00 0.00 88 1014.5
20260906095006 72 323 0.9 1.7 0.00 0.00 0.00 88 1014.5
20260906094506 72 358 1.7 1.7 0.00 0.00 0.00 88 1014.5
20260906094006 72 357 1.7 2.6 0.00 0.00 0.00 88 1014.5
20260906093006 72 339 0.9 2.6 0.00 0.00 0.00 88 1014.4
20260906092505 72 351 1.7 2.6 0.00 0.00 0.00 87 1014.4
20260906092006 72 4 0.9 1.7 0.00 0.00 0.00 87 1014.4
20260906091506 72 344 1.7 2.6 0.00 0.00 0.00 87 1014.4
20260906091006 72 359 0.9 1.7 0.00 0.00 0.00 87 1014.4
20260906090506 72 341 0.9 1.7 0.00 0.00 0.00 87 1014.4
20260906090005 72 335 1.7 2.6 0.00 0.00 0.00 88 1014.4
20260906085006 74 346 1.7 2.6 0.00 0.00 0.00 84 1014.3
20260906084506 74 152 0.0 0.9 0.00 0.00 0.00 83 1014.3
20260906084006 74 131 0.9 1.7 0.00 0.00 0.00 83 1014.3
20260906083506 74 149 0.9 1.7 0.00 0.00 0.00 83 1014.2
20260906083006 74 163 0.9 1.7 0.00 0.00 0.00 83 1014.3
20260906082506 74 170 0.0 0.9 0.00 0.00 0.00 83 1014.3
20260906081506 74 198 0.0 0.9 0.00 0.00 0.00 84 1014.3
20260906081006 74 231 0.0 0.0 0.00 0.00 0.00 84 1014.3
20260906080505 74 231 0.0 0.0 0.00 0.00 0.00 84 1014.3
20260906080006 74 231 0.0 0.0 0.00 0.00 0.00 83 1014.4
20260906075007 75 8 1.7 2.6 0.00 0.00 0.00 82 1014.5
20260906074006 75 9 0.9 1.7 0.00 0.00 0.00 80 1014.4
20260906073506 76 353 0.9 1.7 0.00 0.00 0.00 80 1014.3
20260906073006 76 342 0.9 1.7 0.00 0.00 0.00 80 1014.3
20260906072006 75 328 0.9 0.9 0.00 0.00 0.00 80 1014.4
20260906071506 75 329 0.9 1.7 0.00 0.00 0.00 81 1014.5
20260906071006 75 336 0.9 1.7 0.00 0.00 0.00 81 1014.5
20260906070506 75 348 1.7 1.7 0.00 0.00 0.00 81 1014.4
20260906070005 76 346 1.7 1.7 0.00 0.00 0.00 80 1014.5
20260906065506 76 354 0.9 1.7 0.00 0.00 0.00 78 1014.5
20260906065006 77 334 1.7 1.7 0.00 0.00 0.00 78 1014.5
20260906064506 76 337 0.9 1.7 0.00 0.00 0.00 78 1014.5
20260906064005 76 295 0.0 0.9 0.00 0.00 0.00 78 1014.6
20260906063506 76 334 0.9 1.7 0.00 0.00 0.00 78 1014.6
20260906063006 76 339 1.7 1.7 0.00 0.00 0.00 79 1014.6
20260906062506 76 341 0.9 1.7 0.00 0.00 0.00 78 1014.6
20260906062006 77 347 0.9 2.6 0.00 0.00 0.00 78 1014.6
20260906061506 77 358 0.9 2.6 0.00 0.00 0.00 77 1014.6
20260906061006 77 356 0.9 1.7 0.00 0.00 0.00 76 1014.6
20260906060506 77 241 0.0 0.9 0.00 0.00 0.00 76 1014.7
20260906060006 77 15 0.0 0.0 0.00 0.00 0.00 76 1014.6
20260906055506 77 15 0.0 0.0 0.00 0.00 0.00 76 1014.6
20260906055006 77 15 0.0 1.7 0.00 0.00 0.00 76 1014.5
20260906054506 77 345 0.9 1.7 0.00 0.00 0.00 76 1014.5
20260906054006 78 352 1.7 1.7 0.00 0.00 0.00 75 1014.5
20260906052506 78 341 0.9 1.7 0.00 0.00 0.00 73 1014.5
20260906052005 78 331 0.9 1.7 0.00 0.00 0.00 73 1014.4
20260906051506 78 8 0.9 0.9 0.00 0.00 0.00 74 1014.4
20260906050507 78 336 1.7 2.6 0.00 0.00 0.00 75 1014.4
20260906050006 79 347 1.7 2.6 0.00 0.00 0.00 73 1014.4
20260906045506 79 0 0.9 1.7 0.00 0.00 0.00 72 1014.3
20260906045006 79 351 0.9 1.7 0.00 0.00 0.00 72 1014.3
20260906044506 81 357 1.7 1.7 0.00 0.00 0.00 69 1014.3
20260906043506 81 25 0.9 2.6 0.00 0.00 0.00 66 1014.3
20260906043006 80 66 1.7 1.7 0.00 0.00 0.00 67 1014.3
20260906042506 80 10 0.0 0.9 0.00 0.00 0.00 69 1014.3
20260906042006 80 331 0.9 1.7 0.00 0.00 0.00 70 1014.3
20260906040006 83 1 0.0 1.7 0.00 0.00 0.00 63 1014.1
20260906035506 84 106 0.9 1.7 0.00 0.00 0.00 62 1014.1
20260906035007 84 99 0.9 2.6 0.00 0.00 0.00 62 1014.2
20260906034507 84 82 2.6 4.3 0.00 0.00 0.00 61 1014.1
20260906033507 84 87 1.7 4.3 0.00 0.00 0.00 61 1014.2
20260906033007 84 94 1.7 2.6 0.00 0.00 0.00 61 1014.2
20260906032506 85 158 1.7 4.3 0.00 0.00 0.00 60 1014.1
20260906032006 85 78 2.6 5.2 0.00 0.00 0.00 60 1014.1
20260906031506 85 81 1.7 4.3 0.00 0.00 0.00 59 1014.1
20260906031006 85 76 2.6 5.2 0.00 0.00 0.00 59 1014.0
20260906030006 85 81 3.5 6.1 0.00 0.00 0.00 58 1013.9
20260906025507 85 75 3.5 5.2 0.00 0.00 0.00 58 1013.9
20260906025007 86 77 3.5 6.1 0.00 0.00 0.00 58 1013.9
20260906024506 85 77 2.6 6.1 0.00 0.00 0.00 57 1013.8
20260906024006 85 107 0.9 2.6 0.00 0.00 0.00 58 1013.8
20260906023008 85 166 0.9 2.6 0.00 0.00 0.00 58 1013.7
20260906022506 84 115 0.0 0.9 0.00 0.00 0.00 60 1013.6
20260906022006 84 337 0.0 2.6 0.00 0.00 0.00 59 1013.5
20260906021006 84 318 0.0 0.9 0.00 0.00 0.00 60 1013.2
20260906020506 84 318 0.9 1.7 0.00 0.00 0.00 61 1013.1
20260906020006 85 349 0.9 1.7 0.00 0.00 0.00 60 1012.9
20260906015506 85 352 0.9 1.7 0.00 0.00 0.00 58 1012.8
20260906015006 86 333 0.9 1.7 0.00 0.00 0.00 57 1012.7
20260906014506 87 349 0.9 1.7 0.00 0.00 0.00 56 1012.7
20260906014006 88 356 0.9 1.7 0.00 0.00 0.00 54 1012.8
20260906013506 88 318 0.0 0.9 0.00 0.00 0.00 52 1012.9
20260906013006 89 326 0.0 0.9 0.00 0.00 0.00 51 1012.8
20260906012506 89 147 0.0 0.9 0.00 0.00 0.00 51 1012.8
20260906012006 90 200 0.0 1.7 0.00 0.00 0.00 50 1012.8
20260906011007 91 39 1.7 2.6 0.00 0.00 0.00 48 1012.8
20260906010506 91 60 2.6 5.2 0.00 0.00 0.00 48 1012.7
20260906010006 91 76 3.5 5.2 0.00 0.00 0.00 48 1012.7
20260906005506 91 71 1.7 4.3 0.00 0.00 0.00 48 1012.7
20260906005007 91 78 3.5 7.8 0.00 0.00 0.00 47 1012.7
20260906004006 91 101 1.7 5.2 0.00 0.00 0.00 47 1012.7
20260906003507 92 82 1.7 5.2 0.00 0.00 0.00 47 1012.7
20260906003007 92 88 2.6 5.2 0.00 0.00 0.00 47 1012.8
20260906002006 92 84 2.6 6.1 0.00 0.00 0.00 47 1012.9
20260906001006 94 131 1.7 6.1 0.00 0.00 0.00 45 1013.1
20260906000506 94 47 1.7 4.3 0.00 0.00 0.00 44 1013.1
20260906000006 94 59 0.9 2.6 0.00 0.00 0.00 44 1013.1
20260905235507 94 56 1.7 5.2 0.00 0.00 0.00 43 1013.1
20260905235006 95 65 2.6 6.1 0.00 0.00 0.00 43 1013.2
20260905234507 96 40 2.6 6.1 0.00 0.00 0.00 43 1013.3
20260905234007 96 63 1.7 5.2 0.00 0.00 0.00 43 1013.3
20260905233007 96 64 2.6 6.1 0.00 0.00 0.00 42 1013.3
20260905232508 96 37 2.6 5.2 0.00 0.00 0.00 43 1013.4
20260905232006 96 41 2.6 5.2 0.00 0.00 0.00 42 1013.3
20260905231507 97 44 1.7 5.2 0.00 0.00 0.00 42 1013.4
20260905230006 103 264 1.7 2.6 0.00 0.00 0.00 33 1014.0
20260905225007 102 206 1.7 6.1 0.00 0.00 0.00 34 1013.6
20260905224507 103 205 2.6 6.1 0.00 0.00 0.00 34 1013.6
20260905224007 103 205 0.9 6.1 0.00 0.00 0.00 34 1013.6
20260905223508 103 193 2.6 6.1 0.00 0.00 0.00 34 1013.7
20260905223007 104 310 0.9 4.3 0.00 0.00 0.00 33 1013.7
20260905222507 104 194 1.7 4.3 0.00 0.00 0.00 33 1013.6
20260905222006 103 156 1.7 4.3 0.00 0.00 0.00 34 1013.7
20260905221506 103 162 4.3 6.1 0.00 0.00 0.00 34 1013.7
20260905221006 103 232 2.6 5.2 0.00 0.00 0.00 34 1013.6
20260905220507 102 156 2.6 5.2 0.00 0.00 0.00 34 1013.5
20260905220006 102 180 4.3 7.0 0.00 0.00 0.00 34 1013.6
20260905215507 101 156 1.7 5.2 0.00 0.00 0.00 35 1013.6
20260905214506 101 111 2.6 7.0 0.00 0.00 0.00 35 1013.7
20260905214006 101 133 3.5 6.1 0.00 0.00 0.00 35 1013.7
20260905213507 102 75 2.6 6.1 0.00 0.00 0.00 35 1013.7
20260905213007 102 132 4.3 6.1 0.00 0.00 0.00 35 1013.7
20260905212506 102 127 4.3 7.8 0.00 0.00 0.00 35 1013.7
20260905212007 102 85 1.7 7.8 0.00 0.00 0.00 35 1013.8
20260905211506 102 101 0.9 2.6 0.00 0.00 0.00 34 1014.0
20260905211006 102 91 0.9 2.6 0.00 0.00 0.00 35 1014.0
20260905210006 103 165 1.7 6.1 0.00 0.00 0.00 34 1014.1
20260905205507 103 165 2.6 7.0 0.00 0.00 0.00 35 1014.1
20260905205006 103 226 2.6 6.1 0.00 0.00 0.00 35 1014.2
20260905204507 103 206 2.6 5.2 0.00 0.00 0.00 34 1014.4
20260905204006 104 76 2.6 6.1 0.00 0.00 0.00 34 1014.5
20260905203507 104 105 1.7 4.3 0.00 0.00 0.00 34 1014.6
20260905203006 103 236 1.7 5.2 0.00 0.00 0.00 34 1014.6
20260905202506 103 238 2.6 6.1 0.00 0.00 0.00 35 1014.6
20260905202006 103 210 2.6 7.0 0.00 0.00 0.00 34 1014.7
20260905201506 103 120 1.7 4.3 0.00 0.00 0.00 35 1014.7
20260905201007 102 160 1.7 6.1 0.00 0.00 0.00 35 1014.8
20260905200507 102 211 1.7 7.0 0.00 0.00 0.00 35 1014.9
20260905200006 102 185 3.5 7.0 0.00 0.00 0.00 35 1014.9
20260905195007 102 187 2.6 6.1 0.00 0.00 0.00 35 1015.0
20260905194506 102 188 3.5 8.7 0.00 0.00 0.00 35 1015.1
20260905194007 102 145 3.5 7.8 0.00 0.00 0.00 36 1015.2
20260905193507 102 132 1.7 7.8 0.00 0.00 0.00 36 1015.2
20260905193007 102 199 2.6 7.0 0.00 0.00 0.00 36 1015.2
20260905192507 101 193 2.6 8.7 0.00 0.00 0.00 37 1015.2
20260905192006 102 208 3.5 7.8 0.00 0.00 0.00 36 1015.4
20260905191507 101 255 2.6 5.2 0.00 0.00 0.00 37 1015.4
20260905191007 101 292 2.6 5.2 0.00 0.00 0.00 36 1015.5
20260905190507 100 314 2.6 6.1 0.00 0.00 0.00 38 1015.4
20260905190006 101 311 2.6 5.2 0.00 0.00 0.00 37 1015.5
20260905185507 101 313 3.5 6.1 0.00 0.00 0.00 37 1015.7
20260905185007 100 312 4.3 6.1 0.00 0.00 0.00 38 1015.7
20260905184507 100 307 2.6 5.2 0.00 0.00 0.00 37 1015.8
20260905184006 100 196 1.7 7.8 0.00 0.00 0.00 38 1015.8
20260905183506 100 187 1.7 7.8 0.00 0.00 0.00 39 1015.9
20260905183008 100 260 4.3 8.7 0.00 0.00 0.00 39 1015.9
20260905182506 100 220 2.6 6.1 0.00 0.00 0.00 38 1016.0
20260905182006 99 233 0.9 4.3 0.00 0.00 0.00 41 1016.0
20260905181506 98 207 0.9 7.0 0.00 0.00 0.00 41 1016.1
20260905181006 99 240 2.6 5.2 0.00 0.00 0.00 40 1016.1
20260905175507 99 283 4.3 7.8 0.00 0.00 0.00 41 1016.2
20260905175006 99 283 4.3 10.4 0.00 0.00 0.00 41 1016.2
20260905174506 99 213 4.3 10.4 0.00 0.00 0.00 41 1016.2
20260905174006 98 212 2.6 8.7 0.00 0.00 0.00 44 1016.1
20260905173006 97 199 2.6 10.4 0.00 0.00 0.00 43 1016.3
20260905172506 98 238 5.2 11.3 0.00 0.00 0.00 42 1016.5
20260905172007 98 353 2.6 7.0 0.00 0.00 0.00 44 1016.5
20260905171506 97 255 3.5 7.8 0.00 0.00 0.00 45 1016.4
20260905171006 97 302 2.6 6.1 0.00 0.00 0.00 46 1016.4
20260905170507 97 312 2.6 5.2 0.00 0.00 0.00 46 1016.3
20260905170006 97 76 1.7 5.2 0.00 0.00 0.00 46 1016.3
20260905165506 96 232 0.9 4.3 0.00 0.00 0.00 47 1016.4
20260905165007 96 318 2.6 6.1 0.00 0.00 0.00 48 1016.4
20260905164506 95 235 1.7 6.1 0.00 0.00 0.00 49 1016.3
20260905163506 95 284 2.6 6.1 0.00 0.00 0.00 47 1016.5
20260905163006 95 18 1.7 4.3 0.00 0.00 0.00 49 1016.4
20260905162506 95 13 1.7 5.2 0.00 0.00 0.00 50 1016.5
20260905162006 95 14 2.6 6.1 0.00 0.00 0.00 49 1016.6
20260905161506 95 340 2.6 6.1 0.00 0.00 0.00 50 1016.5
20260905161006 94 343 1.7 5.2 0.00 0.00 0.00 51 1016.6
20260905160506 94 314 1.7 6.1 0.00 0.00 0.00 51 1016.5
20260905155507 92 314 1.7 7.0 0.00 0.00 0.00 52 1016.6